STARLINK-36851

Last updated on Fri Mar 27 2026 00:02:06 GMT+0000 (Coordinated Universal Time)

1 67943U 26037M 26085.50002314 .00115703 00000+0 19543-2 0 9993 2 67943 43.0003 97.0657 0001303 296.4462 182.7565 15.50503533 5903
UTC large
Height (km)
Speed (km/s)
/
Latitude / Longitude
Inclination (degrees)
Orbital Period (minutes)
Azimuth
Elevation
Range (km)
Doppler Factor

Next 0 passes for location: London (51.5072 / 0.1276)

Sorry there are no passes over London.